Weather History for KORG - August, 2013

Change the Weather History Date:

Thursday, August 29, 2013

  Actual Average Record
Temperature  
Mean Temperature 83 °F -  
Max Temperature 94 °F 89 °F 100 °F (2011)
Min Temperature 73 °F 70 °F 64 °F (1968)
Cooling Degree Days 18    
Growing Degree Days 33 (Base 50)    
Moisture  
Dew Point 73 °F    
Average Humidity 77    
Maximum Humidity 97    
Minimum Humidity 39    
Precipitation  
Precipitation 0.00 in - - ()
Sea Level Pressure  
Sea Level Pressure 30.03 in    
Wind  
Wind Speed 2 mph (South)    
Max Wind Speed 14 mph    
Max Gust Speed 17 mph    
Visibility 8 miles    
Events      
Averages and records for this station are not official NWS values.
T = Trace of Precipitation, MM = Missing Value Source: NWS Daily Summary

Daily Weather History Graph

Daily Weather History Graph

Search for Another Location

Airport or City:

Trip Planner

Search our weather history database for the weather conditions in past years. The results will help you decide how hot, cold, wet, or windy it might be!

Date:

Astronomy

Aug. 29, 2013 Rise Set
Actual Time 6:50 AM CDT 7:40 PM CDT
Civil Twilight 6:26 AM CDT 8:05 PM CDT
Nautical Twilight 5:57 AM CDT 8:34 PM CDT
Astronomical Twilight 5:27 AM CDT 9:03 PM CDT
Moon 12:55 AM CDT (8/29) 2:57 PM CDT (8/29)
Length of Visible Light 13h 39m
Length of Day
12h 50m
Last Quarter, 38% of the Moon is Illuminated
Aug 29
Last Quarter
Sep 5
New
Sep 12
First Quarter
Sep 19
Full
Sep 26
Last Quarter

Hourly Weather History & Observations

Time (CDT) Temp. Heat Index Dew Point Humidity Pressure Visibility Wind Dir Wind Speed Gust Speed Precip Events Conditions
12:15 AM 77.9 °F - 73.9 °F 88% 30.05 in 10.0 mi Calm Calm - N/A   Scattered Clouds
12:35 AM 77.4 °F - 74.3 °F 90% 30.05 in 10.0 mi Calm Calm - N/A   Scattered Clouds
12:55 AM 76.1 °F - 73.6 °F 92% 30.05 in 7.0 mi Calm Calm - N/A   Mostly Cloudy
1:15 AM 76.3 °F - 74.3 °F 94% 30.05 in 7.0 mi Calm Calm - N/A   Scattered Clouds
1:35 AM 75.6 °F - 73.9 °F 95% 30.05 in 5.0 mi Calm Calm - N/A   Clear
1:55 AM 75.4 °F - 74.1 °F 96% 30.05 in 5.0 mi Calm Calm - N/A   Scattered Clouds
2:15 AM 75.2 °F - 73.8 °F 95% 30.05 in 5.0 mi Calm Calm - N/A   Scattered Clouds
2:35 AM 74.8 °F - 73.6 °F 96% 30.05 in 4.0 mi Calm Calm - N/A   Scattered Clouds
2:55 AM 75.2 °F - 73.8 °F 95% 30.05 in 4.0 mi Calm Calm - N/A   Scattered Clouds
3:15 AM 75.2 °F - 73.8 °F 95% 30.05 in 3.0 mi Calm Calm - N/A   Mist
3:35 AM 74.5 °F - 73.4 °F 96% 30.05 in 4.0 mi Calm Calm - N/A   Scattered Clouds
3:55 AM 74.7 °F - 73.6 °F 96% 30.05 in 5.0 mi Calm Calm - N/A   Scattered Clouds
4:15 AM 74.5 °F - 73.4 °F 96% 30.04 in 5.0 mi Calm Calm - N/A   Mostly Cloudy
4:35 AM 75.0 °F - 73.8 °F 96% 30.05 in 4.0 mi Calm Calm - N/A   Overcast
4:55 AM 75.2 °F - 73.8 °F 95% 30.05 in 4.0 mi Calm Calm - N/A   Mostly Cloudy
5:15 AM 74.7 °F - 73.4 °F 96% 30.05 in 4.0 mi Calm Calm - N/A   Scattered Clouds
5:35 AM 74.3 °F - 73.0 °F 96% 30.05 in 3.0 mi Calm Calm - N/A   Mist
5:55 AM 73.9 °F - 72.9 °F 96% 30.05 in 2.0 mi Calm Calm - N/A   Mist
6:15 AM 73.8 °F - 72.7 °F 96% 30.06 in 1.8 mi Calm Calm - N/A   Mostly Cloudy
6:35 AM 73.9 °F - 72.9 °F 96% 30.06 in 1.0 mi Calm Calm - N/A   Mostly Cloudy
6:55 AM 73.4 °F - 72.5 °F 97% 30.06 in 1.0 mi Calm Calm - N/A   Mist
7:15 AM 73.6 °F - 72.7 °F 97% 30.07 in 2.0 mi Calm Calm - N/A   Mist
7:35 AM 73.8 °F - 72.9 °F 97% 30.07 in 2.5 mi Calm Calm - N/A   Mostly Cloudy
7:55 AM 75.9 °F - 75.0 °F 97% 30.07 in 5.0 mi Calm Calm - N/A   Mostly Cloudy
8:15 AM 77.9 °F - 76.1 °F 94% 30.08 in 7.0 mi Calm Calm - N/A   Scattered Clouds
8:35 AM 79.7 °F - 75.6 °F 87% 30.08 in 10.0 mi Calm Calm - N/A   Clear
8:55 AM 81.1 °F 87.4 °F 75.4 °F 83% 30.08 in 10.0 mi West 3.5 mph - N/A   Clear
9:15 AM 82.4 °F 89.5 °F 75.2 °F 79% 30.08 in 10.0 mi West 4.6 mph - N/A   Clear
9:35 AM 83.3 °F 90.5 °F 74.5 °F 75% 30.08 in 10.0 mi West 5.8 mph - N/A   Clear
9:55 AM 84.2 °F 91.9 °F 74.8 °F 73% 30.08 in 10.0 mi West 4.6 mph - N/A   Clear
10:15 AM 85.3 °F 92.2 °F 73.4 °F 67% 30.07 in 10.0 mi West 6.9 mph - N/A   Clear
10:35 AM 86.2 °F 93.4 °F 73.0 °F 65% 30.07 in 10.0 mi West 5.8 mph - N/A   Clear
10:55 AM 87.1 °F 94.1 °F 72.9 °F 62% 30.07 in 10.0 mi WNW 4.6 mph - N/A   Scattered Clouds
11:15 AM 87.8 °F 94.7 °F 72.1 °F 60% 30.07 in 10.0 mi NW 4.6 mph - N/A   Clear
11:35 AM 88.7 °F 94.3 °F 70.7 °F 55% 30.07 in 10.0 mi NW 8.1 mph - N/A   Scattered Clouds
11:55 AM 88.7 °F 93.9 °F 70.0 °F 54% 30.06 in 10.0 mi West 4.6 mph - N/A   Scattered Clouds
12:15 PM 89.2 °F 94.5 °F 70.0 °F 53% 30.06 in 10.0 mi WNW 4.6 mph - N/A   Scattered Clouds
12:35 PM 88.2 °F 93.3 °F 70.3 °F 55% 30.05 in 10.0 mi Calm Calm - N/A   Mostly Cloudy
12:55 PM 90.3 °F 95.7 °F 70.0 °F 51% 30.05 in 10.0 mi West 5.8 mph - N/A   Scattered Clouds
1:15 PM 90.5 °F 95.5 °F 69.4 °F 50% 30.04 in 10.0 mi NNW 4.6 mph - N/A   Scattered Clouds
1:35 PM 90.9 °F 95.3 °F 68.9 °F 48% 30.03 in 10.0 mi Calm Calm - N/A   Clear
1:55 PM 91.9 °F 95.9 °F 68.0 °F 45% 30.02 in 10.0 mi Calm Calm - N/A   Clear
2:15 PM 93.0 °F 96.9 °F 67.5 °F 43% 30.02 in 10.0 mi North 4.6 mph - N/A   Scattered Clouds
2:35 PM 93.0 °F 95.0 °F 64.9 °F 39% 30.01 in 10.0 mi ESE 3.5 mph - N/A   Scattered Clouds
2:55 PM 93.6 °F 97.4 °F 67.6 °F 42% 30.00 in 10.0 mi North 6.9 mph - N/A   Clear
3:15 PM 93.7 °F 97.2 °F 66.6 °F 41% 30.00 in 10.0 mi East 4.6 mph - N/A   Clear
3:35 PM 90.5 °F 100.3 °F 74.5 °F 59% 30.00 in 10.0 mi SSE 9.2 mph - N/A   Mostly Cloudy
3:55 PM 90.5 °F 101.5 °F 75.4 °F 61% 29.99 in 10.0 mi SSE 12.7 mph - N/A   Scattered Clouds
4:15 PM 89.2 °F 100.1 °F 75.7 °F 64% 29.99 in 10.0 mi SSE 10.4 mph - N/A   Clear
4:35 PM 89.1 °F 100.2 °F 76.1 °F 65% 29.98 in 10.0 mi South 12.7 mph - N/A   Clear
4:55 PM 88.9 °F 99.2 °F 75.4 °F 64% 29.98 in 10.0 mi South 11.5 mph - N/A   Clear
5:15 PM 88.3 °F 98.4 °F 75.4 °F 65% 29.98 in 10.0 mi SSE 13.8 mph - N/A   Clear
5:35 PM 87.4 °F 97.2 °F 75.2 °F 67% 29.98 in 10.0 mi SSE 12.7 mph 17.3 mph N/A   Clear
5:55 PM 86.9 °F 96.4 °F 75.2 °F 68% 29.98 in 10.0 mi SE 10.4 mph - N/A   Clear
6:15 PM 86.2 °F 95.1 °F 75.0 °F 69% 29.98 in 10.0 mi SSE 9.2 mph - N/A   Clear
6:35 PM 85.3 °F 94.2 °F 75.2 °F 72% 29.98 in 10.0 mi SSE 8.1 mph - N/A   Clear
6:55 PM 84.7 °F 92.8 °F 75.0 °F 72% 29.98 in 10.0 mi SSE 8.1 mph - N/A   Clear
7:15 PM 84.0 °F 91.5 °F 74.7 °F 73% 29.98 in 10.0 mi SSE 6.9 mph - N/A   Clear
7:35 PM 83.3 °F 90.2 °F 74.3 °F 74% 29.99 in 10.0 mi SSE 8.1 mph - N/A   Clear
7:55 PM 82.4 °F 89.2 °F 74.8 °F 78% 29.99 in 10.0 mi SSE 5.8 mph - N/A   Clear
8:15 PM 81.9 °F 88.5 °F 75.2 °F 80% 30.00 in 10.0 mi SSE 4.6 mph - N/A   Clear
8:35 PM 81.5 °F 87.8 °F 75.2 °F 81% 30.00 in 10.0 mi SSE 6.9 mph - N/A   Clear
8:55 PM 81.5 °F 87.6 °F 74.8 °F 80% 30.00 in 10.0 mi SSE 5.8 mph - N/A   Clear
9:15 PM 81.0 °F 86.7 °F 74.8 °F 82% 30.01 in 10.0 mi SSE 4.6 mph - N/A   Clear
9:35 PM 81.0 °F 86.7 °F 74.8 °F 82% 30.01 in 10.0 mi SSE 4.6 mph - N/A   Clear
9:55 PM 80.6 °F 85.9 °F 74.5 °F 82% 30.01 in 10.0 mi SSE 3.5 mph - N/A   Clear
10:15 PM 80.1 °F 84.8 °F 74.5 °F 83% 30.02 in 10.0 mi Calm Calm - N/A   Clear
10:35 PM 79.3 °F - 74.7 °F 86% 30.02 in 10.0 mi Calm Calm - N/A   Clear
10:55 PM 77.9 °F - 74.3 °F 89% 30.02 in 10.0 mi Calm Calm - N/A   Clear
11:15 PM 77.4 °F - 74.5 °F 91% 30.02 in 10.0 mi Calm Calm - N/A   Clear
11:35 PM 77.4 °F - 73.8 °F 89% 30.03 in 10.0 mi Calm Calm - N/A   Clear
11:55 PM 77.0 °F - 74.1 °F 91% 30.02 in 10.0 mi Calm Calm - N/A   Scattered Clouds